Погода в Тукае

Россия / Оренбургская область     52°45′29″N   54°14′06″E
В апреле 2022 года жителям России запретили посещать сайт meteo.paraplan.net по решению Генеральной прокуратуры. Аудитория сайта уменьшилась в 10 раз. Владельцы сайта не видят смысла в поддержке погодного сервера в таких условиях. Сайт будет закрыт в октябре.
темп.,
°C
ветер,
м/с
пор.,
м/с
влажн.,
%
обл.,
%
осадки,
мм/ч
давл.,
гПа
погр.,
м
3 октября, пн
пн323:00+12ююв7163798 0.0 1022416
02:00+10ююв6154069 0.0 1022373
05:00+9ююв5124060 0.0 1023317
08:00+8ююв5134172 0.0 1024320
11:00+13ююв812285 0.0 1025604
14:00+16ююв810275 0.0 1025939
17:00+16ююв79303 0.0 10241024
20:00+11юв511385 0.0 1026239
4 октября, вт
вт423:00+10юв512425 0.0 1027263
02:00+8юв511411 0.0 1028241
05:00+7вюв494050 0.0 1029151
08:00+6вюв393877 0.0 1030182
11:00+11юв71025100 0.0 1030466
14:00+14ююв7922100 0.0 1030836
17:00+14ююв682366 0.0 10301055
20:00+10юв49315 0.0 1031146
5 октября, ср
ср523:00+9юв41230100 0.0 1030229
02:00+9юв4113099 0.0 1031274
05:00+8юв483370 0.0 1031148
08:00+9юв51129100 0.0 1030291
11:00+11ююв71126100 0.0 1030433
14:00+13ююв5924100 0.0 1029682
17:00+13ююв51024100 0.0 1028642
20:00+12вюв3629100 0.1 1027132
6 октября, чт
чт623:00+12юв4112666 0.1 1026243
02:00+12ююв4926100 0.0 1024188
05:00+12ююв41026100 0.0 1022241
08:00+11ююв4929100 0.0 1021244
11:00+13ю4629100 0.0 1020435
14:00+11ююв51154100 0.3 1019526
17:00+10ююз3963100 1.1 1019639
20:00+9ююз3680100 0.6 1019336
7 октября, пт
пт723:00+8юз38845 0.6 1018271
02:00+7юз3490100 0.1 1017107
05:00+7зюз498897 0.3 1017284
08:00+7з3789100 0.3 1017307
11:00+9з566847 0.3 10171011
14:00+11зюз795281 0.1 10161308
17:00+9юз51181100 0.6 1016771
20:00+10зюз61289100 0.4 1016700